Location: Bouchavesnes-Bergen
(49.9859°N, 2.9203°E)
Time: 23:42:51
(UTC+00:00)

Cosmos 2360 Rocket - Pass Details

Date: 09 March 2021
Orbit: 832 x 846 km, 71.0° (Epoch: 13 April)

Event Time Altitude Azimuth Distance (km) Brightness Sun altitude
Rises 03:51:25 0° 326° (NW) 3,418 5.3 -23.4°
Reaches altitude 10° 03:53:59 10° 320° (NW) 2,479 4.4 -23.0°
Enters shadow 03:54:02 10° 319° (NW) 2,463 4.4 -23.0°
Exits shadow 04:04:39 - 183° (S) 2,515 4.4 -21.4°
Sets 04:07:03 0° 177° (S) 3,390 5.2 -21.1°
